| time (UTC) | temp F | wind direction | speed knots | gust knots | rain 1hr in | rain 24hr in | rain mn in | humidity % | barometer mb |
| 20260509022135 | 55 | 255 | 0.0 | 1.7 | 0.00 | 0.00 | 0.00 | 69 | 1006.7 |
| 20260509021640 | 55 | 263 | 0.0 | 0.9 | 0.00 | 0.00 | 0.00 | 68 | 1006.7 |
| 20260509021137 | 56 | 259 | 0.0 | 0.9 | 0.00 | 0.00 | 0.00 | 68 | 1006.6 |
| 20260509020643 | 56 | 259 | 0.0 | 1.7 | 0.00 | 0.00 | 0.00 | 67 | 1006.5 |
| 20260509020147 | 56 | 276 | 0.0 | 1.7 | 0.00 | 0.00 | 0.00 | 67 | 1006.4 |
| 20260509015651 | 56 | 257 | 0.9 | 1.7 | 0.00 | 0.00 | 0.00 | 67 | 1006.4 |
| 20260509015149 | 56 | 250 | 0.0 | 1.7 | 0.00 | 0.00 | 0.00 | 66 | 1006.4 |
| 20260509014632 | 56 | 235 | 0.0 | 1.7 | 0.00 | 0.00 | 0.00 | 66 | 1006.2 |
| 20260509014152 | 56 | 219 | 0.0 | 0.9 | 0.00 | 0.00 | 0.00 | 65 | 1006.3 |
| 20260509013700 | 57 | 219 | 0.0 | 0.9 | 0.00 | 0.00 | 0.00 | 65 | 1006.1 |
| 20260509013133 | 57 | 254 | 0.0 | 0.9 | 0.00 | 0.00 | 0.00 | 64 | 1006.0 |
| 20260509012637 | 57 | 254 | 0.0 | 0.9 | 0.00 | 0.00 | 0.00 | 63 | 1005.9 |
| 20260509012137 | 57 | 226 | 0.0 | 0.9 | 0.00 | 0.00 | 0.00 | 62 | 1005.9 |
| 20260509011640 | 57 | 264 | 0.0 | 0.0 | 0.00 | 0.00 | 0.00 | 61 | 1005.9 |
| 20260509011140 | 58 | 264 | 0.0 | 0.0 | 0.00 | 0.00 | 0.00 | 59 | 1005.8 |
| 20260509010710 | 58 | 264 | 0.0 | 0.9 | 0.00 | 0.00 | 0.00 | 57 | 1005.8 |
| 20260509010134 | 58 | 264 | 0.0 | 0.9 | 0.00 | 0.00 | 0.00 | 56 | 1005.7 |
| 20260509005637 | 59 | 262 | 0.0 | 0.0 | 0.00 | 0.00 | 0.00 | 54 | 1005.7 |
| 20260509005152 | 59 | 262 | 0.0 | 1.7 | 0.00 | 0.00 | 0.00 | 52 | 1005.7 |
| 20260509004635 | 60 | 262 | 0.0 | 1.7 | 0.00 | 0.00 | 0.00 | 49 | 1005.6 |
| 20260509004153 | 60 | 262 | 0.0 | 0.9 | 0.00 | 0.00 | 0.00 | 45 | 1005.6 |
| 20260509003657 | 60 | 233 | 0.0 | 0.9 | 0.00 | 0.00 | 0.00 | 44 | 1005.5 |
| 20260509003152 | 61 | 251 | 0.0 | 5.2 | 0.00 | 0.00 | 0.00 | 43 | 1005.5 |
| 20260509002635 | 61 | 251 | 0.9 | 5.2 | 0.00 | 0.00 | 0.00 | 42 | 1005.4 |
| 20260509002136 | 62 | 252 | 0.0 | 3.5 | 0.00 | 0.00 | 0.00 | 39 | 1005.5 |
| 20260509001640 | 62 | 293 | 0.9 | 4.3 | 0.00 | 0.00 | 0.00 | 38 | 1005.4 |
| 20260509001157 | 63 | 269 | 0.0 | 4.3 | 0.00 | 0.00 | 0.00 | 37 | 1005.4 |
| 20260509000639 | 63 | 282 | 0.9 | 4.3 | 0.00 | 0.00 | 0.00 | 37 | 1005.4 |
| 20260509000142 | 63 | 270 | 0.9 | 5.2 | 0.00 | 0.00 | 0.00 | 37 | 1005.5 |
| 20260508235644 | 64 | 293 | 0.0 | 3.5 | 0.00 | 0.00 | 0.00 | 38 | 1005.4 |
| 20260508235141 | 65 | 299 | 0.9 | 2.6 | 0.00 | 0.00 | 0.00 | 38 | 1005.4 |
| 20260508234645 | 64 | 137 | 0.0 | 4.3 | 0.00 | 0.00 | 0.00 | 39 | 1005.4 |
| 20260508234139 | 64 | 244 | 0.0 | 5.2 | 0.00 | 0.00 | 0.00 | 38 | 1005.4 |
| 20260508233642 | 65 | 308 | 0.9 | 5.2 | 0.00 | 0.00 | 0.00 | 35 | 1005.4 |
| 20260508233145 | 64 | 207 | 0.9 | 5.2 | 0.00 | 0.00 | 0.00 | 35 | 1005.4 |
| 20260508232649 | 64 | 298 | 0.9 | 4.3 | 0.00 | 0.00 | 0.00 | 35 | 1005.4 |
| 20260508232150 | 64 | 271 | 1.7 | 6.1 | 0.00 | 0.00 | 0.00 | 35 | 1005.4 |
| 20260508231634 | 63 | 278 | 2.6 | 7.8 | 0.00 | 0.00 | 0.00 | 34 | 1005.4 |
| 20260508231131 | 63 | 13 | 1.7 | 4.3 | 0.00 | 0.00 | 0.00 | 35 | 1005.5 |
| 20260508230635 | 64 | 283 | 2.6 | 4.3 | 0.00 | 0.00 | 0.00 | 33 | 1005.4 |
| 20260508230138 | 64 | 217 | 1.7 | 9.6 | 0.00 | 0.00 | 0.00 | 35 | 1005.4 |
| 20260508225707 | 63 | 248 | 3.5 | 9.6 | 0.00 | 0.00 | 0.00 | 34 | 1005.5 |
| 20260508225212 | 65 | 311 | 3.5 | 7.8 | 0.00 | 0.00 | 0.00 | 33 | 1005.5 |
| 20260508224633 | 66 | 203 | 2.6 | 7.0 | 0.00 | 0.00 | 0.00 | 34 | 1005.4 |
| 20260508224152 | 65 | 246 | 1.7 | 7.0 | 0.00 | 0.00 | 0.00 | 34 | 1005.4 |
| 20260508223634 | 65 | 262 | 1.7 | 5.2 | 0.00 | 0.00 | 0.00 | 35 | 1005.5 |
| 20260508223201 | 64 | 263 | 1.7 | 9.6 | 0.00 | 0.00 | 0.00 | 35 | 1005.6 |
| 20260508222647 | 64 | 219 | 5.2 | 9.6 | 0.00 | 0.00 | 0.00 | 34 | 1005.6 |
| 20260508222142 | 66 | 240 | 1.7 | 5.2 | 0.00 | 0.00 | 0.00 | 35 | 1005.6 |
| 20260508221646 | 65 | 271 | 2.6 | 7.0 | 0.00 | 0.00 | 0.00 | 34 | 1005.6 |
| 20260508221145 | 65 | 250 | 3.5 | 7.0 | 0.00 | 0.00 | 0.00 | 35 | 1005.7 |
| 20260508220648 | 65 | 270 | 0.0 | 7.0 | 0.00 | 0.00 | 0.00 | 35 | 1005.7 |
| 20260508220132 | 64 | 278 | 3.5 | 7.0 | 0.00 | 0.00 | 0.00 | 34 | 1005.7 |
| 20260508215635 | 65 | 274 | 0.9 | 4.3 | 0.00 | 0.00 | 0.00 | 37 | 1005.7 |
| 20260508215201 | 65 | 277 | 1.7 | 5.2 | 0.00 | 0.00 | 0.00 | 35 | 1005.8 |
| 20260508214644 | 65 | 215 | 1.7 | 5.2 | 0.00 | 0.00 | 0.00 | 36 | 1005.9 |
| 20260508214141 | 64 | 194 | 0.9 | 7.0 | 0.00 | 0.00 | 0.00 | 36 | 1005.9 |
| 20260508213642 | 63 | 214 | 3.5 | 10.4 | 0.00 | 0.00 | 0.00 | 35 | 1005.9 |
| 20260508213146 | 64 | 290 | 4.3 | 10.4 | 0.00 | 0.00 | 0.00 | 33 | 1005.9 |
| 20260508212647 | 66 | 292 | 4.3 | 9.6 | 0.00 | 0.00 | 0.00 | 32 | 1005.9 |
| 20260508212150 | 66 | 300 | 0.9 | 7.0 | 0.00 | 0.00 | 0.00 | 33 | 1005.8 |
| 20260508211635 | 64 | 217 | 1.7 | 10.4 | 0.00 | 0.00 | 0.00 | 33 | 1005.9 |
| 20260508211135 | 64 | 261 | 4.3 | 10.4 | 0.00 | 0.00 | 0.00 | 32 | 1006.0 |
| 20260508210640 | 65 | 330 | 2.6 | 9.6 | 0.00 | 0.00 | 0.00 | 31 | 1006.0 |
| 20260508210143 | 64 | 224 | 3.5 | 9.6 | 0.00 | 0.00 | 0.00 | 33 | 1006.1 |
| 20260508205647 | 64 | 237 | 1.7 | 12.2 | 0.00 | 0.00 | 0.00 | 33 | 1006.1 |
| 20260508205143 | 64 | 231 | 6.1 | 12.2 | 0.00 | 0.00 | 0.00 | 32 | 1006.0 |
| 20260508204711 | 64 | 295 | 3.5 | 10.4 | 0.00 | 0.00 | 0.00 | 32 | 1006.2 |
| 20260508203643 | 65 | 271 | 4.3 | 11.3 | 0.00 | 0.00 | 0.00 | 31 | 1006.2 |
| 20260508203148 | 64 | 211 | 2.6 | 8.7 | 0.00 | 0.00 | 0.00 | 34 | 1006.2 |
| 20260508202631 | 65 | 254 | 5.2 | 8.7 | 0.00 | 0.00 | 0.00 | 32 | 1006.4 |
| 20260508202151 | 65 | 253 | 0.9 | 4.3 | 0.00 | 0.00 | 0.00 | 34 | 1006.4 |
| 20260508201653 | 65 | 194 | 1.7 | 6.1 | 0.00 | 0.00 | 0.00 | 33 | 1006.6 |
| 20260508201132 | 65 | 217 | 1.7 | 6.1 | 0.00 | 0.00 | 0.00 | 36 | 1006.7 |
| 20260508200635 | 64 | 275 | 0.9 | 7.8 | 0.00 | 0.00 | 0.00 | 33 | 1006.8 |
| 20260508200140 | 64 | 248 | 1.7 | 7.8 | 0.00 | 0.00 | 0.00 | 34 | 1006.8 |
| 20260508195641 | 64 | 260 | 3.5 | 7.8 | 0.00 | 0.00 | 0.00 | 34 | 1006.9 |
| 20260508195206 | 63 | 249 | 3.5 | 8.7 | 0.00 | 0.00 | 0.00 | 34 | 1006.9 |
| 20260508194650 | 64 | 307 | 2.6 | 8.7 | 0.00 | 0.00 | 0.00 | 34 | 1006.9 |
| 20260508194148 | 64 | 248 | 0.9 | 5.2 | 0.00 | 0.00 | 0.00 | 36 | 1007.1 |
| 20260508193650 | 64 | 220 | 1.7 | 5.2 | 0.00 | 0.00 | 0.00 | 34 | 1007.3 |
| 20260508193132 | 64 | 297 | 1.7 | 12.2 | 0.00 | 0.00 | 0.00 | 35 | 1007.3 |
| 20260508192634 | 63 | 98 | 3.5 | 12.2 | 0.00 | 0.00 | 0.00 | 36 | 1007.4 |
| 20260508192200 | 62 | 252 | 0.9 | 7.0 | 0.00 | 0.00 | 0.00 | 36 | 1007.5 |
| 20260508191643 | 62 | 217 | 2.6 | 8.7 | 0.00 | 0.00 | 0.00 | 36 | 1007.7 |
| 20260508191208 | 63 | 311 | 1.7 | 7.0 | 0.00 | 0.00 | 0.00 | 36 | 1007.6 |
| 20260508190649 | 63 | 301 | 1.7 | 7.8 | 0.00 | 0.00 | 0.00 | 36 | 1007.7 |
| 20260508190149 | 62 | 293 | 3.5 | 7.8 | 0.00 | 0.00 | 0.00 | 34 | 1007.8 |
| 20260508185631 | 63 | 290 | 4.3 | 7.8 | 0.00 | 0.00 | 0.00 | 33 | 1007.8 |
| 20260508185131 | 63 | 245 | 1.7 | 7.0 | 0.00 | 0.00 | 0.00 | 36 | 1007.8 |
| 20260508184637 | 63 | 317 | 1.7 | 8.7 | 0.00 | 0.00 | 0.00 | 32 | 1008.0 |
| 20260508184138 | 63 | 216 | 1.7 | 8.7 | 0.00 | 0.00 | 0.00 | 36 | 1008.1 |
| 20260508183642 | 63 | 301 | 1.7 | 5.2 | 0.00 | 0.00 | 0.00 | 33 | 1008.1 |
| 20260508183145 | 64 | 284 | 2.6 | 4.3 | 0.00 | 0.00 | 0.00 | 35 | 1008.1 |
| 20260508182648 | 63 | 233 | 0.9 | 2.6 | 0.00 | 0.00 | 0.00 | 34 | 1008.0 |
| 20260508182148 | 63 | 316 | 0.9 | 5.2 | 0.00 | 0.00 | 0.00 | 36 | 1008.1 |
| 20260508181631 | 61 | 304 | 1.7 | 7.0 | 0.00 | 0.00 | 0.00 | 40 | 1008.2 |
| 20260508181147 | 62 | 311 | 3.5 | 7.0 | 0.00 | 0.00 | 0.00 | 35 | 1008.2 |
| 20260508180631 | 62 | 274 | 0.9 | 4.3 | 0.00 | 0.00 | 0.00 | 36 | 1008.2 |
| 20260508180135 | 61 | 252 | 0.9 | 6.1 | 0.00 | 0.00 | 0.00 | 36 | 1008.4 |
| 20260508175638 | 61 | 305 | 3.5 | 6.1 | 0.00 | 0.00 | 0.00 | 35 | 1008.6 |
| 20260508175157 | 61 | 232 | 1.7 | 6.1 | 0.00 | 0.00 | 0.00 | 36 | 1008.5 |
| 20260508174638 | 61 | 309 | 0.9 | 4.3 | 0.00 | 0.00 | 0.00 | 35 | 1008.7 |
| 20260508174203 | 61 | 169 | 0.0 | 4.3 | 0.00 | 0.00 | 0.00 | 36 | 1008.9 |
| 20260508173644 | 60 | 229 | 1.7 | 6.1 | 0.00 | 0.00 | 0.00 | 36 | 1008.9 |
| 20260508173144 | 60 | 315 | 1.7 | 7.0 | 0.00 | 0.00 | 0.00 | 35 | 1009.0 |
| 20260508172645 | 60 | 167 | 1.7 | 7.0 | 0.00 | 0.00 | 0.00 | 37 | 1009.1 |
| 20260508172209 | 60 | 278 | 1.7 | 3.5 | 0.00 | 0.00 | 0.00 | 37 | 1009.0 |
| 20260508171632 | 60 | 153 | 0.9 | 4.3 | 0.00 | 0.00 | 0.00 | 39 | 1009.3 |
| 20260508171148 | 60 | 141 | 0.9 | 4.3 | 0.00 | 0.00 | 0.00 | 36 | 1009.3 |
| 20260508170651 | 60 | 311 | 2.6 | 4.3 | 0.00 | 0.00 | 0.00 | 36 | 1009.4 |
| 20260508170132 | 59 | 359 | 0.9 | 6.1 | 0.00 | 0.00 | 0.00 | 39 | 1009.5 |
| 20260508165635 | 58 | 277 | 1.7 | 7.8 | 0.00 | 0.00 | 0.00 | 38 | 1009.5 |
| 20260508165134 | 58 | 291 | 1.7 | 8.7 | 0.00 | 0.00 | 0.00 | 37 | 1009.6 |
| 20260508164703 | 58 | 280 | 4.3 | 8.7 | 0.00 | 0.00 | 0.00 | 36 | 1009.7 |
| 20260508164207 | 58 | 282 | 0.9 | 6.1 | 0.00 | 0.00 | 0.00 | 39 | 1009.7 |
| 20260508163648 | 57 | 282 | 0.9 | 5.2 | 0.00 | 0.00 | 0.00 | 38 | 1009.8 |
| 20260508163143 | 57 | 290 | 2.6 | 4.3 | 0.00 | 0.00 | 0.00 | 40 | 1009.8 |
| 20260508162645 | 56 | 115 | 0.9 | 8.7 | 0.00 | 0.00 | 0.00 | 41 | 1009.9 |
| 20260508162209 | 56 | 309 | 3.5 | 8.7 | 0.00 | 0.00 | 0.00 | 41 | 1010.0 |
| 20260508161633 | 56 | 298 | 4.3 | 7.8 | 0.00 | 0.00 | 0.00 | 42 | 1010.0 |
| 20260508161133 | 56 | 243 | 2.6 | 9.6 | 0.00 | 0.00 | 0.00 | 42 | 1010.2 |
| 20260508160636 | 56 | 265 | 6.1 | 9.6 | 0.00 | 0.00 | 0.00 | 43 | 1010.2 |
| 20260508160135 | 56 | 269 | 2.6 | 7.0 | 0.00 | 0.00 | 0.00 | 44 | 1010.2 |
| 20260508155639 | 56 | 236 | 0.0 | 7.0 | 0.00 | 0.00 | 0.00 | 44 | 1010.2 |
| 20260508155204 | 56 | 260 | 1.7 | 7.0 | 0.00 | 0.00 | 0.00 | 45 | 1010.2 |
| 20260508154645 | 56 | 47 | 1.7 | 7.0 | 0.00 | 0.00 | 0.00 | 44 | 1010.2 |
| 20260508154143 | 56 | 296 | 2.6 | 7.0 | 0.00 | 0.00 | 0.00 | 42 | 1010.2 |
| 20260508153647 | 56 | 255 | 0.9 | 7.0 | 0.00 | 0.00 | 0.00 | 43 | 1010.2 |
| 20260508153132 | 55 | 227 | 1.7 | 7.0 | 0.00 | 0.00 | 0.00 | 44 | 1010.2 |
| 20260508152635 | 55 | 321 | 1.7 | 7.0 | 0.00 | 0.00 | 0.00 | 43 | 1010.3 |
| 20260508152132 | 56 | 320 | 0.0 | 4.3 | 0.00 | 0.00 | 0.00 | 44 | 1010.4 |
| 20260508151635 | 54 | 116 | 0.9 | 4.3 | 0.00 | 0.00 | 0.00 | 46 | 1010.3 |
| 20260508151134 | 54 | 284 | 0.0 | 4.3 | 0.00 | 0.00 | 0.00 | 44 | 1010.4 |
| 20260508150637 | 54 | 252 | 0.9 | 3.5 | 0.00 | 0.00 | 0.00 | 46 | 1010.4 |
| 20260508150156 | 54 | 314 | 0.0 | 4.3 | 0.00 | 0.00 | 0.00 | 50 | 1010.5 |
| 20260508145637 | 54 | 311 | 1.7 | 4.3 | 0.00 | 0.00 | 0.00 | 48 | 1010.5 |
| 20260508145153 | 53 | 86 | 0.9 | 4.3 | 0.00 | 0.00 | 0.00 | 49 | 1010.5 |
| 20260508144700 | 53 | 129 | 2.6 | 4.3 | 0.00 | 0.00 | 0.00 | 50 | 1010.5 |
| 20260508144138 | 53 | 274 | 0.0 | 1.7 | 0.00 | 0.00 | 0.00 | 54 | 1010.6 |
| 20260508143640 | 53 | 276 | 0.0 | 1.7 | 0.00 | 0.00 | 0.00 | 54 | 1010.6 |
| 20260508143143 | 52 | 123 | 0.9 | 1.7 | 0.00 | 0.00 | 0.00 | 53 | 1010.7 |
| 20260508142647 | 52 | 79 | 0.0 | 1.7 | 0.00 | 0.00 | 0.00 | 55 | 1010.8 |
| 20260508142144 | 51 | 71 | 0.0 | 1.7 | 0.00 | 0.00 | 0.00 | 55 | 1010.7 |
| 20260508141648 | 51 | 69 | 0.0 | 2.6 | 0.00 | 0.00 | 0.00 | 61 | 1010.7 |
| 20260508141147 | 50 | 282 | 0.9 | 2.6 | 0.00 | 0.00 | 0.00 | 60 | 1010.7 |
| 20260508140631 | 50 | 301 | 0.0 | 3.5 | 0.00 | 0.00 | 0.00 | 61 | 1010.8 |
| 20260508140134 | 50 | 281 | 1.7 | 3.5 | 0.00 | 0.00 | 0.00 | 61 | 1010.8 |
| 20260508135636 | 50 | 324 | 0.9 | 2.6 | 0.00 | 0.00 | 0.00 | 62 | 1010.9 |
| 20260508135158 | 49 | 284 | 0.0 | 2.6 | 0.00 | 0.00 | 0.00 | 65 | 1011.0 |
| 20260508134639 | 48 | 272 | 0.0 | 2.6 | 0.00 | 0.00 | 0.00 | 68 | 1011.0 |
| 20260508134204 | 48 | 267 | 1.7 | 2.6 | 0.00 | 0.00 | 0.00 | 68 | 1011.0 |
| 20260508133646 | 48 | 230 | 0.0 | 0.9 | 0.00 | 0.00 | 0.00 | 70 | 1011.0 |
| 20260508133150 | 47 | 231 | 0.0 | 1.7 | 0.00 | 0.00 | 0.00 | 71 | 1011.0 |
| 20260508132634 | 47 | 120 | 0.9 | 1.7 | 0.00 | 0.00 | 0.00 | 74 | 1011.0 |
| 20260508132134 | 46 | 130 | 0.0 | 0.0 | 0.00 | 0.00 | 0.00 | 75 | 1011.0 |
| 20260508131638 | 46 | 130 | 0.0 | 0.0 | 0.00 | 0.00 | 0.00 | 75 | 1011.0 |
| 20260508131137 | 45 | 203 | 0.0 | 0.0 | 0.00 | 0.00 | 0.00 | 76 | 1011.0 |
| 20260508130641 | 45 | 207 | 0.0 | 0.0 | 0.00 | 0.00 | 0.00 | 77 | 1011.1 |
| 20260508130145 | 45 | 205 | 0.0 | 0.0 | 0.00 | 0.00 | 0.00 | 78 | 1011.0 |
| 20260508125646 | 44 | 141 | 0.0 | 0.0 | 0.00 | 0.00 | 0.00 | 78 | 1011.1 |
| 20260508125142 | 44 | 140 | 0.0 | 0.0 | 0.00 | 0.00 | 0.00 | 79 | 1011.0 |
| 20260508124712 | 44 | 140 | 0.0 | 0.0 | 0.00 | 0.00 | 0.00 | 80 | 1010.8 |
| 20260508124149 | 43 | 140 | 0.0 | 0.0 | 0.00 | 0.00 | 0.00 | 81 | 1010.8 |
| 20260508123633 | 43 | 259 | 0.0 | 0.0 | 0.00 | 0.00 | 0.00 | 82 | 1010.8 |
| 20260508123153 | 42 | 259 | 0.0 | 0.0 | 0.00 | 0.00 | 0.00 | 85 | 1010.7 |
| 20260508122636 | 42 | 259 | 0.0 | 0.0 | 0.00 | 0.00 | 0.00 | 87 | 1010.8 |
| 20260508122154 | 41 | 259 | 0.0 | 0.0 | 0.00 | 0.00 | 0.00 | 89 | 1010.7 |
| 20260508121637 | 40 | 259 | 0.0 | 0.0 | 0.00 | 0.00 | 0.00 | 91 | 1010.7 |
| 20260508121136 | 40 | 259 | 0.0 | 0.0 | 0.00 | 0.00 | 0.00 | 94 | 1010.7 |
| 20260508120638 | 39 | 286 | 0.0 | 0.0 | 0.00 | 0.00 | 0.00 | 94 | 1010.6 |
| 20260508120204 | 39 | 286 | 0.0 | 0.0 | 0.00 | 0.00 | 0.00 | 94 | 1010.6 |
| 20260508115647 | 39 | 287 | 0.0 | 0.0 | 0.00 | 0.00 | 0.00 | 94 | 1010.6 |
| 20260508115148 | 39 | 286 | 0.0 | 0.0 | 0.00 | 0.00 | 0.00 | 95 | 1010.4 |
| 20260508114631 | 38 | 286 | 0.0 | 0.0 | 0.00 | 0.00 | 0.00 | 94 | 1010.4 |
| 20260508114148 | 38 | 286 | 0.0 | 0.0 | 0.00 | 0.00 | 0.00 | 94 | 1010.4 |
| 20260508113650 | 38 | 286 | 0.0 | 0.0 | 0.00 | 0.00 | 0.00 | 94 | 1010.3 |
| 20260508113137 | 38 | 286 | 0.0 | 0.0 | 0.00 | 0.00 | 0.00 | 94 | 1010.3 |
| 20260508112638 | 38 | 286 | 0.0 | 0.0 | 0.00 | 0.00 | 0.00 | 94 | 1010.3 |
| 20260508112157 | 38 | 286 | 0.0 | 0.0 | 0.00 | 0.00 | 0.00 | 94 | 1010.2 |
| 20260508111706 | 38 | 286 | 0.0 | 0.0 | 0.00 | 0.00 | 0.00 | 94 | 1010.1 |
| 20260508111145 | 37 | 286 | 0.0 | 0.0 | 0.00 | 0.00 | 0.00 | 94 | 1010.1 |
| 20260508110649 | 37 | 286 | 0.0 | 0.0 | 0.00 | 0.00 | 0.00 | 94 | 1010.1 |
| 20260508110216 | 37 | 286 | 0.0 | 0.0 | 0.00 | 0.00 | 0.00 | 94 | 1010.1 |
| 20260508105656 | 37 | 286 | 0.0 | 0.0 | 0.00 | 0.00 | 0.00 | 93 | 1010.0 |
| 20260508105154 | 37 | 287 | 0.0 | 0.0 | 0.00 | 0.00 | 0.00 | 93 | 1010.0 |
| 20260508104634 | 37 | 286 | 0.0 | 0.0 | 0.00 | 0.00 | 0.00 | 93 | 1010.0 |
| 20260508104135 | 37 | 287 | 0.0 | 0.0 | 0.00 | 0.00 | 0.00 | 93 | 1009.9 |
| 20260508103635 | 37 | 286 | 0.0 | 0.0 | 0.00 | 0.00 | 0.00 | 93 | 1009.9 |
| 20260508103138 | 37 | 286 | 0.0 | 0.0 | 0.00 | 0.00 | 0.00 | 93 | 1010.0 |
| 20260508102709 | 37 | 286 | 0.0 | 0.0 | 0.00 | 0.00 | 0.00 | 92 | 1009.9 |
| 20260508102146 | 37 | 286 | 0.0 | 0.0 | 0.00 | 0.00 | 0.00 | 92 | 1009.9 |
| 20260508101630 | 38 | 286 | 0.0 | 0.0 | 0.00 | 0.00 | 0.00 | 92 | 1009.9 |
| 20260508101150 | 38 | 286 | 0.0 | 0.0 | 0.00 | 0.00 | 0.00 | 92 | 1009.9 |
| 20260508100632 | 38 | 286 | 0.0 | 0.0 | 0.00 | 0.00 | 0.00 | 92 | 1010.0 |
| 20260508100151 | 38 | 286 | 0.0 | 0.0 | 0.00 | 0.00 | 0.00 | 92 | 1010.0 |
| 20260508095652 | 38 | 286 | 0.0 | 0.0 | 0.00 | 0.00 | 0.00 | 92 | 1010.0 |
| 20260508095148 | 38 | 286 | 0.0 | 0.0 | 0.00 | 0.00 | 0.00 | 91 | 1010.0 |
| 20260508094650 | 38 | 286 | 0.0 | 0.0 | 0.00 | 0.00 | 0.00 | 91 | 1010.0 |
| 20260508094147 | 38 | 286 | 0.0 | 0.0 | 0.00 | 0.00 | 0.00 | 91 | 1010.0 |
| 20260508093631 | 38 | 286 | 0.0 | 0.0 | 0.00 | 0.00 | 0.00 | 91 | 1010.1 |
| 20260508093137 | 38 | 286 | 0.0 | 0.0 | 0.00 | 0.00 | 0.00 | 91 | 1010.1 |
| 20260508092706 | 38 | 286 | 0.0 | 0.0 | 0.00 | 0.00 | 0.00 | 91 | 1010.1 |
| 20260508092144 | 38 | 286 | 0.0 | 0.0 | 0.00 | 0.00 | 0.00 | 90 | 1010.2 |
| 20260508091650 | 38 | 286 | 0.0 | 0.0 | 0.00 | 0.00 | 0.00 | 90 | 1010.2 |
| 20260508091147 | 38 | 286 | 0.0 | 0.0 | 0.00 | 0.00 | 0.00 | 90 | 1010.2 |
| 20260508090651 | 39 | 286 | 0.0 | 0.0 | 0.00 | 0.00 | 0.00 | 89 | 1010.2 |
| 20260508090149 | 39 | 286 | 0.0 | 0.0 | 0.00 | 0.00 | 0.00 | 89 | 1010.1 |
| 20260508085633 | 39 | 286 | 0.0 | 0.0 | 0.00 | 0.00 | 0.00 | 88 | 1010.2 |
| 20260508085146 | 39 | 286 | 0.0 | 0.0 | 0.00 | 0.00 | 0.00 | 88 | 1010.1 |
| 20260508084631 | 39 | 286 | 0.0 | 0.0 | 0.00 | 0.00 | 0.00 | 88 | 1010.2 |
| 20260508084146 | 40 | 286 | 0.0 | 0.0 | 0.00 | 0.00 | 0.00 | 87 | 1010.1 |
| 20260508083631 | 40 | 286 | 0.0 | 0.0 | 0.00 | 0.00 | 0.00 | 87 | 1010.2 |
| 20260508083136 | 40 | 286 | 0.0 | 0.0 | 0.00 | 0.00 | 0.00 | 87 | 1010.2 |
| 20260508082635 | 41 | 286 | 0.0 | 0.0 | 0.00 | 0.00 | 0.00 | 86 | 1010.2 |
| 20260508082156 | 41 | 286 | 0.0 | 0.0 | 0.00 | 0.00 | 0.00 | 85 | 1010.2 |
| 20260508081639 | 41 | 286 | 0.0 | 0.0 | 0.00 | 0.00 | 0.00 | 85 | 1010.2 |
| 20260508081204 | 42 | 286 | 0.0 | 0.0 | 0.00 | 0.00 | 0.00 | 84 | 1010.2 |
| 20260508080648 | 42 | 286 | 0.0 | 0.0 | 0.00 | 0.00 | 0.00 | 83 | 1010.2 |
| 20260508080146 | 42 | 286 | 0.0 | 0.0 | 0.00 | 0.00 | 0.00 | 83 | 1010.3 |
| 20260508075650 | 42 | 286 | 0.0 | 0.0 | 0.00 | 0.00 | 0.00 | 83 | 1010.2 |
| 20260508075216 | 42 | 286 | 0.0 | 0.0 | 0.00 | 0.00 | 0.00 | 83 | 1010.2 |
| 20260508074633 | 43 | 286 | 0.0 | 0.0 | 0.00 | 0.00 | 0.00 | 83 | 1010.2 |
| 20260508074153 | 43 | 286 | 0.0 | 0.0 | 0.00 | 0.00 | 0.00 | 83 | 1010.3 |
| 20260508073649 | 43 | 286 | 0.0 | 0.0 | 0.00 | 0.00 | 0.00 | 83 | 1010.1 |
| 20260508073145 | 43 | 287 | 0.0 | 0.0 | 0.00 | 0.00 | 0.00 | 83 | 1010.3 |
| 20260508072647 | 42 | 287 | 0.0 | 0.0 | 0.00 | 0.00 | 0.00 | 83 | 1010.4 |
| 20260508072144 | 42 | 286 | 0.0 | 0.9 | 0.00 | 0.00 | 0.00 | 83 | 1010.5 |
| 20260508071646 | 42 | 286 | 0.0 | 0.9 | 0.00 | 0.00 | 0.00 | 83 | 1010.4 |
| 20260508071144 | 42 | 286 | 0.0 | 0.0 | 0.00 | 0.00 | 0.00 | 84 | 1010.4 |
| 20260508070647 | 42 | 286 | 0.0 | 0.0 | 0.00 | 0.00 | 0.00 | 86 | 1010.3 |
| 20260508070145 | 42 | 287 | 0.0 | 0.0 | 0.00 | 0.00 | 0.00 | 87 | 1010.4 |
| 20260508065643 | 41 | 287 | 0.0 | 0.0 | 0.00 | 0.00 | 0.00 | 88 | 1010.4 |
| 20260508065210 | 41 | 287 | 0.0 | 0.0 | 0.00 | 0.00 | 0.00 | 88 | 1010.3 |
| 20260508064634 | 41 | 287 | 0.0 | 0.0 | 0.00 | 0.00 | 0.00 | 88 | 1010.3 |
| 20260508064134 | 41 | 287 | 0.0 | 0.0 | 0.00 | 0.00 | 0.00 | 88 | 1010.3 |
| 20260508063636 | 41 | 287 | 0.0 | 0.0 | 0.00 | 0.00 | 0.00 | 88 | 1010.3 |
| 20260508063155 | 41 | 287 | 0.0 | 0.9 | 0.00 | 0.00 | 0.00 | 88 | 1010.3 |
| 20260508062637 | 41 | 287 | 0.0 | 0.9 | 0.00 | 0.00 | 0.00 | 88 | 1010.4 |
| 20260508062137 | 41 | 286 | 0.0 | 0.9 | 0.00 | 0.00 | 0.00 | 88 | 1010.3 |
| 20260508061640 | 41 | 294 | 0.0 | 0.0 | 0.00 | 0.00 | 0.00 | 87 | 1010.4 |
| 20260508061202 | 41 | 294 | 0.0 | 0.0 | 0.00 | 0.00 | 0.00 | 87 | 1010.4 |
| 20260508060643 | 41 | 294 | 0.0 | 0.0 | 0.00 | 0.00 | 0.00 | 87 | 1010.5 |
| 20260508060133 | 40 | 294 | 0.0 | 0.0 | 0.00 | 0.00 | 0.00 | 87 | 1010.6 |
| 20260508055634 | 40 | 294 | 0.0 | 0.0 | 0.00 | 0.00 | 0.00 | 86 | 1010.6 |
| 20260508055151 | 40 | 294 | 0.0 | 0.0 | 0.00 | 0.00 | 0.00 | 86 | 1010.6 |
| 20260508054653 | 41 | 294 | 0.0 | 0.0 | 0.00 | 0.00 | 0.00 | 86 | 1010.5 |
| 20260508054133 | 41 | 294 | 0.0 | 0.0 | 0.00 | 0.00 | 0.00 | 85 | 1010.6 |
| 20260508053633 | 41 | 294 | 0.0 | 0.0 | 0.00 | 0.00 | 0.00 | 85 | 1010.6 |
| 20260508053153 | 41 | 294 | 0.0 | 0.0 | 0.00 | 0.00 | 0.00 | 84 | 1010.6 |
| 20260508052635 | 41 | 294 | 0.0 | 0.0 | 0.00 | 0.00 | 0.00 | 83 | 1010.6 |
| 20260508052154 | 42 | 294 | 0.0 | 0.0 | 0.00 | 0.00 | 0.00 | 83 | 1010.6 |
| 20260508051639 | 42 | 294 | 0.0 | 0.0 | 0.00 | 0.00 | 0.00 | 82 | 1010.6 |
| 20260508051138 | 42 | 294 | 0.0 | 0.0 | 0.00 | 0.00 | 0.00 | 81 | 1010.7 |
| 20260508050639 | 43 | 294 | 0.0 | 0.0 | 0.00 | 0.00 | 0.00 | 81 | 1010.6 |
| 20260508050145 | 43 | 294 | 0.0 | 0.0 | 0.00 | 0.00 | 0.00 | 80 | 1010.6 |
| 20260508045649 | 43 | 294 | 0.0 | 0.0 | 0.00 | 0.00 | 0.00 | 80 | 1010.5 |
| 20260508044647 | 44 | 294 | 0.0 | 1.7 | 0.00 | 0.00 | 0.00 | 78 | 1010.7 |
| 20260508044145 | 44 | 294 | 0.0 | 1.7 | 0.00 | 0.00 | 0.00 | 77 | 1010.8 |
| 20260508043647 | 45 | 294 | 0.0 | 1.7 | 0.00 | 0.00 | 0.00 | 76 | 1010.7 |
| 20260508043211 | 45 | 73 | 0.0 | 1.7 | 0.00 | 0.00 | 0.00 | 75 | 1010.6 |
| 20260508042633 | 46 | 72 | 0.9 | 1.7 | 0.00 | 0.00 | 0.00 | 72 | 1010.7 |
| 20260508042133 | 47 | 72 | 0.0 | 5.2 | 0.00 | 0.00 | 0.00 | 68 | 1010.7 |
| 20260508041638 | 47 | 273 | 2.6 | 5.2 | 0.00 | 0.00 | 0.00 | 65 | 1010.8 |
| 20260508041136 | 48 | 110 | 0.0 | 6.1 | 0.00 | 0.00 | 0.00 | 63 | 1010.7 |
| 20260508040707 | 48 | 272 | 1.7 | 6.1 | 0.00 | 0.00 | 0.00 | 63 | 1010.7 |
| 20260508040151 | 48 | 265 | 0.0 | 1.7 | 0.00 | 0.00 | 0.00 | 63 | 1010.6 |
| 20260508035654 | 48 | 250 | 0.9 | 0.9 | 0.00 | 0.00 | 0.00 | 63 | 1010.4 |
| 20260508035153 | 48 | 233 | 0.0 | 0.9 | 0.00 | 0.00 | 0.00 | 62 | 1010.4 |
| 20260508034656 | 48 | 225 | 0.0 | 0.0 | 0.00 | 0.00 | 0.00 | 61 | 1010.3 |
| 20260508034156 | 48 | 225 | 0.0 | 0.0 | 0.00 | 0.00 | 0.00 | 61 | 1010.2 |
| 20260508033644 | 48 | 225 | 0.0 | 0.0 | 0.00 | 0.00 | 0.00 | 60 | 1010.3 |
| 20260508033149 | 48 | 226 | 0.0 | 0.0 | 0.00 | 0.00 | 0.00 | 59 | 1010.3 |
| 20260508032631 | 49 | 225 | 0.0 | 0.0 | 0.00 | 0.00 | 0.00 | 59 | 1010.4 |
| 20260508032132 | 49 | 225 | 0.0 | 0.9 | 0.00 | 0.00 | 0.00 | 59 | 1010.3 |
| 20260508031636 | 49 | 225 | 0.0 | 0.9 | 0.00 | 0.00 | 0.00 | 59 | 1010.2 |
| 20260508031133 | 49 | 238 | 0.0 | 0.0 | 0.00 | 0.00 | 0.00 | 57 | 1010.5 |
| 20260508030704 | 49 | 240 | 0.0 | 0.0 | 0.00 | 0.00 | 0.00 | 56 | 1010.7 |
| 20260508030147 | 49 | 257 | 0.0 | 0.0 | 0.00 | 0.00 | 0.00 | 56 | 1010.6 |
| 20260508025650 | 49 | 257 | 0.0 | 0.0 | 0.00 | 0.00 | 0.00 | 56 | 1010.7 |
| 20260508025146 | 49 | 257 | 0.0 | 0.0 | 0.00 | 0.00 | 0.00 | 56 | 1010.8 |
| 20260508024631 | 49 | 257 | 0.0 | 1.7 | 0.00 | 0.00 | 0.00 | 55 | 1010.8 |
| 20260508024132 | 49 | 284 | 0.0 | 1.7 | 0.00 | 0.00 | 0.00 | 55 | 1010.8 |
| 20260508023635 | 49 | 263 | 0.0 | 1.7 | 0.00 | 0.00 | 0.00 | 54 | 1010.8 |
| 20260508023140 | 49 | 253 | 0.9 | 1.7 | 0.00 | 0.00 | 0.00 | 54 | 1010.7 |
| 20260508022644 | 49 | 210 | 0.0 | 0.9 | 0.00 | 0.00 | 0.00 | 54 | 1010.7 |